Regional Weather Roundup
Issued by NWS

Home | Current Version | Previous Version | Graphics & Text | Print | Product List | Glossary On
Versions: 1 2 3 4 5 6 7 8 9 10 11 12 13 14 15 16 17 18 19 20 21 22 23 24 25 26 27 28 29 30 31 32 33 34 35 36 37 38 39 40 41 42 43 44 45 46 47 48 49 50
984
ASUS44 KMEG 211610
RWRTN
TENNESSEE HOURLY STATE WEATHER ROUNDUP
NATIONAL WEATHER SERVICE MEMPHIS TN
1000 AM CST SAT JAN 21 2017

TNZ002-004-019-021-049-052-054-088>092-211700-
WEST TENNESSEE

CITY           SKY/WX    TMP DP  RH WIND       PRES   REMARKS
MEMPHIS INTL   MOSUNNY   66  52  60 S16       29.69R
NWS MEMPHIS      N/A     66 N/A N/A MISG        N/A
JACKSON        CLOUDY    64  53  67 SE10G20   29.69S
DYERSBURG      SUNNY     64  52  63 S7G16     29.68R
UNION CITY     SUNNY     64  57  77 S7        29.66F
PARIS          CLOUDY    57  52  82 CALM      29.70R
HUNTINGDON     CLOUDY    61  54  77 S8        29.69S
$$

TNZ008-025-027-028-033-062-065-066-211700-
NORTH MIDDLE TENNESSEE

CITY           SKY/WX    TMP DP  RH WIND       PRES   REMARKS
NASHVILLE      CLOUDY    64  51  62 S12       29.70F
PORTLAND       SUNNY     63  57  82 S14       29.71R
CLARKSVILLE    CLOUDY    61  53  75 SW7       29.71R
SMYRNA         CLOUDY    64  50  60 S10       29.72F
GALLATIN       SUNNY     61  55  82 S6        29.75S
CROSSVILLE     RAIN      56  53  90 VRB3      29.85R FOG
$$

TNZ061-075-076-078-094-096-097-211700-
SOUTH MIDDLE TENNESSEE

CITY           SKY/WX    TMP DP  RH WIND       PRES   REMARKS
TULLAHOMA      CLOUDY    55  54  94 S6        29.82F
WINCHESTER     CLOUDY    55  54  94 SE8       29.84R
MCMINNVILLE    CLOUDY    55  55 100 CALM      29.82R
COLUMBIA       SUNNY     61  61 100 S7        29.68R
SHELBYVILLE    CLOUDY    61  57  88 SE14      29.76F
$$

TNZ017-018-042-046-047-211700-
NORTHEAST TENNESSEE

CITY           SKY/WX    TMP DP  RH WIND       PRES   REMARKS
TRI CITIES     CLOUDY    50  48  93 E3        29.85F
ELIZABETHTON   PTSUNNY   54  48  82 NE5       29.85F
$$

TNZ012-013-036-069-073-074-211700-
CENTRAL EAST TENNESSEE

CITY           SKY/WX    TMP DP  RH WIND       PRES   REMARKS
KNOXVILLE      CLOUDY    53  48  83 CALM      29.83R
OAK RIDGE      CLOUDY    54  50  86 CALM      29.86R
GATLINBURG     SUNNY     48  46  93 CALM      29.84R
MORRISTOWN     SUNNY     54  50  87 NE3       29.84R
JACKSBORO      CLOUDY    50  50 100 CALM      29.87R
$$

TNZ083-085-099-211700-
SOUTHEAST TENNESSEE

CITY           SKY/WX    TMP DP  RH WIND       PRES   REMARKS
CHATTANOOGA    RAIN      57  55  93 S10       29.85S FOG
$$

SKY/WX REPORTED AS FAIR MEANS FEW OR NO CLOUDS BELOW
12 THOUSAND FEET.





USA.gov is the U.S. government's official web portal to all federal, state and local government web resources and services.